Regional Weather Roundup
Issued by NWS

Home | Current Version | Previous Version | Graphics & Text | Print | Product List | Glossary Off
Versions: 1 2 3 4 5 6 7 8 9 10 11 12 13 14 15 16 17 18 19 20 21 22 23 24 25 26 27 28 29 30 31 32 33 34 35 36 37 38 39 40 41 42 43 44 45 46 47 48 49 50

000
ASUS43 KMPX 211001
RWRMN
WEATHER ROUNDUP FOR MINNESOTA
NATIONAL WEATHER SERVICE TWIN CITIES/CHANHASSEN MN
400 AM CST FRI NOV 21 2014


NOTE: "FAIR" INDICATES FEW OR NO CLOUDS BELOW 12,000 FEET WITH NO
SIGNIFICANT WEATHER AND/OR OBSTRUCTIONS TO VISIBILITY. N/A MEANS
CURRENT SKY AND/OR WEATHER CONDITIONS ARE NOT AVAILABLE.

MNZ060>063-068>070-211100-
   Twin Cities Metro

CITY           SKY/WX    TMP DP  RH WIND       PRES   REMARKS
TWIN CITIES    PTCLDY     5   0  79 E6        30.26S WCI  -6
ST PAUL        PTCLDY     5   3  91 SE7       30.28F WCI  -7
CRYSTAL        PTCLDY     7   2  80 S7        30.23F WCI  -5
BLAINE         PTCLDY     3   1  92 SE3       30.23F
LAKEVILLE      PTCLDY     1   0  92 S3        30.24F
EDEN PRAIRIE   PTCLDY     4   0  83 SE6       30.23F WCI  -7
SOUTH ST PAUL  FAIR       5   1  85 CALM      30.27F
LAKE ELMO      FAIR       1  -2  85 S5        30.26F WCI  -8
$$
MNZ001>005-007-008-013>017-022>024-027-028-211100-
   Northwest Minnesota

CITY           SKY/WX    TMP DP  RH WIND       PRES   REMARKS
BEMIDJI        PTCLDY     9   1  69 S10       30.00F WCI  -5
HALLOCK        MOCLDY    16   9  73 S23G30    29.89F WCI  -2
ROSEAU         MOCLDY    16   7  67 S18       29.91F WCI  -1
WARROAD        PTCLDY    12   7  79 S9G16     29.92F WCI   0
THIEF RVR FALL MOCLDY    14   7  73 S16G24    29.94F WCI  -2
CROOKSTON      MOCLDY    14   9  79 S22       29.97F WCI  -4
FOSSTON        PTCLDY     9   1  72 S14       29.99S WCI  -8
DETROIT LAKES  PTCLDY    12   9  85 S16       30.00F WCI  -4
MOORHEAD       PTCLDY    12  10  92 S17       30.00F WCI  -5
PARK RAPIDS    PTCLDY     5   1  83 S10       30.03F WCI -10
MAHNOMEN       FAIR      11   4  73 S15G23    29.98F WCI  -5
$$
MNZ006-009>011-018-025>026-211100-
   North Central Minnesota

CITY           SKY/WX    TMP DP  RH WIND       PRES   REMARKS
BAUDETTE       MOCLDY    12   4  70 S10       29.95F WCI  -1
FLAG ISLAND    MOCLDY    14   9  79 S21G28    29.90F HAZE    WCI  -4
INTL FALLS     MOCLDY     5   0  79 S6        30.01F WCI  -6
WASKISH        MOCLDY    12   5  73 CALM      29.99F
BIG FORK       PTCLDY     9   3  78 S9        30.04F WCI  -5
LONGVILLE      PTCLDY     7   1  78 S7        30.08F WCI  -5
GRAND RAPIDS   PTCLDY     3   0  85 S7        30.07F WCI  -9
CRANE LAKE     PTCLDY     1   0  92 CALM      30.10F
ORR            CLOUDY     3  -2  78 CALM      30.04F
COOK           MOCLDY     3   0  85 CALM      30.07F
WALKER         FAIR       9  -1  66 S7        30.05F WCI  -3
$$
MNZ012-019>021-037-211100-
   Northeast Minnesota

CITY           SKY/WX    TMP DP  RH WIND       PRES   REMARKS
DULUTH         PTCLDY     5  -3  69 S3        30.13F
ELY            PTCLDY     1  -2  85 S3        30.08F
HIBBING        PTCLDY     0  -6  76 VRB5      30.11F WCI -10
EVELETH        MOCLDY     0  -6  78 CALM      30.11F
DULUTH HARBOR  PTCLDY     5   0  78 CALM      30.22F
TWO HARBORS    PTCLDY     9   1  72 CALM      30.14F
SILVER BAY     PTCLDY     7   1  78 CALM      30.14F
GRAND MARAIS     N/A      7  -1  70 NW6       30.18F WCI  -3
G MARAIS ARPRT PTCLDY    -2  -8  78 S5        30.07R WCI -12
$$
MNZ029>031-032-039>041-046>048-054>057-064-211100-
   West Central Minnesota

CITY           SKY/WX    TMP DP  RH WIND       PRES   REMARKS
FERGUS FALLS   MOCLDY    10   3  72 S17       30.06F WCI  -7
WHEATON        PTCLDY     9   3  78 SE13      30.06F WCI  -7
MORRIS         PTCLDY     3   1  92 SE15      30.07F WCI -15
ALEXANDRIA     MOCLDY    10   4  76 S16       30.07F WCI  -7
ELBOW LAKE       N/A      9   5  84 SE17      30.04F WCI -10
WADENA         PTCLDY     7   1  78 S8        30.06F WCI  -6
GLENWOOD       PTCLDY     7   5  92 S12       30.09F WCI  -9
APPLETON       PTCLDY     9   3  78 SE8       30.10F WCI  -4
BENSON         PTCLDY     5   1  85 S9        30.11F WCI  -9
ORTONVILLE     PTCLDY     7   1  78 SE14      30.06F WCI -10
MADISON        PTCLDY    10   7  85 SE13      30.10F WCI  -5
WILLMAR        FAIR       3  -2  78 SE7       30.15F WCI  -9
$$
MNZ033>034-036-042>043-049>051-058-059-211100-
   Central Minnesota

CITY           SKY/WX    TMP DP  RH WIND       PRES   REMARKS
ST CLOUD       PTCLDY     1  -4  79 SE7       30.18F WCI -12
SAUK CENTRE    FAIR       2  -1  85 SE10      30.11F WCI -14
PAYNESVILLE    MOCLDY     4   2  91 E10       30.15F WCI -11
AITKIN         PTCLDY     0  -8  71 CALM      30.12F
PINE RIVER     PTCLDY     5   1  85 S6        30.12F WCI  -6
BRAINERD       PTCLDY     3  -1  83 S9        30.13F WCI -12
STAPLES        CLEAR      5   0  78 S6        30.09F WCI  -6
LONG PRAIRIE   FAIR       5   1  85 SE10      30.10F WCI -10
LITTLE FALLS   PTCLDY     3   0  85 SE6       30.15F WCI  -8
LITCHFIELD     PTCLDY     7   5  92 SE3       30.18F
BUFFALO        PTCLDY     4   0  85 S3        30.21F
MAPLE LAKE     PTCLDY     4   1  89 S5        30.20F WCI  -5
$$
MNZ037-044-045-052-053-211100-
   East Central Minnesota

CITY           SKY/WX    TMP DP  RH WIND       PRES   REMARKS
PRINCETON      PTCLDY    -2  -6  84 CALM      30.20F
MORA             N/A    N/A N/A N/A MISG        N/A
CAMBRIDGE      PTCLDY     1  -6  71 SE3       30.20F
RUSH CITY      PTCLDY    -2  -5  86 CALM      30.23S
MOOSE LAKE     MOCLDY    -8 -13  77 CALM      30.17S
HINCKLEY       FAIR      -8 -13  77 CALM      30.21S
CLOQUET        PTCLDY     0  -6  78 S3        30.15F
MCGREGOR       PTCLDY     3   0  85 S7        30.15F WCI  -9
$$
MNZ071>073-080-081-089-090-097-098-211100-
   Southwest Minnesota

CITY           SKY/WX    TMP DP  RH WIND       PRES   REMARKS
MONTEVIDEO     PTCLDY     9   5  85 S10       30.13F WCI  -6
GRANITE FALLS  MOCLDY     7   3  85 SE13      30.15F WCI  -9
CANBY          PTCLDY    18  13  79 S16G24    30.09F WCI   4
MARSHALL       PTCLDY    16   7  67 S15       30.10F WCI   1
REDWOOD FALLS  PTCLDY     6   2  83 SE10      30.18F WCI  -9
OLIVIA         MOCLDY     9   3  78 SE9       30.16F WCI  -5
PIPESTONE      PTCLDY    12   9  85 S13       30.10F WCI  -3
WINDOM         PTCLDY    12   9  85 S9        30.16F WCI   0
WORTHINGTON    PTCLDY    12   9  85 S14       30.15F WCI  -3
JACKSON        PTCLDY    12   9  85 S13       30.18F WCI  -3
TRACY          MOCLDY    15   9  77 S21G26    30.11F WCI  -3
SLAYTON        MOCLDY    14  10  85 S14       30.13F WCI  -1
$$
MNZ065>067-074>077-082>085-091>093-211100-
   South Central Minnesota

CITY           SKY/WX    TMP DP  RH WIND       PRES   REMARKS
MANKATO        CLEAR      7   0  72 S9        30.22F WCI  -7
NEW ULM        PTCLDY     7   3  85 S9        30.20F WCI  -7
ST JAMES       CLEAR      9   5  85 S12       30.21F WCI  -6
FAIRMONT       CLEAR      7   3  85 S12       30.20F WCI  -9
GLENCOE        PTCLDY     7   4  89 SE6       30.21F WCI  -3
FARIBAULT      CLEAR      3   0  85 SE3       30.24F
OWATONNA       PTCLDY     9   3  78 S10       30.23F WCI  -6
WASECA         PTCLDY     7   1  78 S8        30.25S WCI  -6
ALBERT LEA       N/A      3   1  92 S2        30.25F
$$
MNZ078>079-086>088-094>096-211100-
   Southeast Minnesota

CITY           SKY/WX    TMP DP  RH WIND       PRES   REMARKS
ROCHESTER      PTCLDY    -1  -4  87 S7        30.25F WCI -14
RED WING         N/A      0  -4  85 E3        30.28S
STANTON        PTCLDY     4  -1  81 S5        30.24F WCI  -6
DODGE CENTER   PTCLDY     3   0  85 S7        30.23F WCI  -9
WINONA         PTCLDY     5   1  85 CALM      30.34S
AUSTIN         MOCLDY     3   0  85 S5        30.25F WCI  -6
PRESTON        PTCLDY     2  -1  86 S6        30.28S WCI  -9
$$
ABBREVIATIONS USED IN REMARKS
   TC - TEMPERATURES IN CELSIUS
  WCI - WIND CHILL INDEX
   HX - HEAT INDEX
  VSB - VISIBILITY
$$


USA.gov is the U.S. government's official web portal to all federal, state and local government web resources and services.